| time (UTC) | temp F | wind direction | speed MPH | gust MPH | rain 1hr in | rain 24hr in | rain mn in | humidity % | barometer mb |
| 20260507161548 | 59 | 49 | 4.0 | 9.0 | 0.00 | 0.00 | 0.00 | 100 | |
| 20260507160048 | 58 | 35 | 3.0 | 9.0 | 0.00 | 0.00 | 0.00 | 100 | |
| 20260507154548 | 60 | 101 | 3.0 | 9.0 | 0.00 | 0.00 | 0.00 | 100 | |
| 20260507153048 | 62 | 122 | 3.0 | 7.0 | 0.00 | 0.00 | 0.00 | 100 | |
| 20260507151548 | 59 | 64 | 8.0 | 9.0 | 0.00 | 0.00 | 0.00 | 100 | |
| 20260507150048 | 54 | 78 | 7.0 | 10.0 | 0.00 | 0.01 | 0.00 | 100 | |
| 20260507144548 | 54 | 40 | 6.0 | 9.0 | 0.00 | 0.01 | 0.00 | 100 | |
| 20260507143048 | 53 | 118 | 2.0 | 11.0 | 0.00 | 0.01 | 0.00 | 100 | |
| 20260507141548 | 54 | 66 | 5.0 | 10.0 | 0.00 | 0.01 | 0.00 | 100 | |
| 20260507140048 | 54 | 66 | 9.0 | 12.0 | 0.00 | 0.01 | 0.00 | 100 | |
| 20260507134548 | 54 | 45 | 8.0 | 12.0 | 0.00 | 0.01 | 0.00 | 100 | |
| 20260507133049 | 54 | 94 | 3.0 | 10.0 | 0.00 | 0.01 | 0.00 | 100 | |
| 20260507131549 | 54 | 84 | 4.0 | 11.0 | 0.00 | 0.01 | 0.00 | 100 | |
| 20260507130049 | 53 | 68 | 10.0 | 12.0 | 0.00 | 0.01 | 0.00 | 100 | |
| 20260507124549 | 53 | 22 | 4.0 | 9.0 | 0.00 | 0.01 | 0.00 | 100 | |
| 20260507123049 | 53 | 59 | 9.0 | 9.0 | 0.00 | 0.01 | 0.00 | 100 | |
| 20260507121549 | 51 | 28 | 5.0 | 10.0 | 0.00 | 0.01 | 0.00 | 100 | |
| 20260507120049 | 51 | 112 | 3.0 | 8.0 | 0.00 | 0.02 | 0.00 | 100 | |
| 20260507114549 | 51 | 43 | 1.0 | 8.0 | 0.00 | 0.02 | 0.00 | 100 | |
| 20260507113049 | 52 | 61 | 7.0 | 9.0 | 0.00 | 0.02 | 0.00 | 100 | |
| 20260507111549 | 52 | 22 | 3.0 | 10.0 | 0.00 | 0.02 | 0.00 | 100 | |
| 20260507110049 | 51 | 54 | 6.0 | 10.0 | 0.00 | 0.02 | 0.00 | 100 | |
| 20260507104549 | 52 | 87 | 5.0 | 13.0 | 0.00 | 0.02 | 0.00 | 100 | |
| 20260507103049 | 52 | 94 | 5.0 | 11.0 | 0.00 | 0.02 | 0.00 | 100 | |
| 20260507101549 | 51 | 53 | 3.0 | 12.0 | 0.00 | 0.02 | 0.00 | 100 | |
| 20260507100049 | 51 | 39 | 7.0 | 11.0 | 0.00 | 0.02 | 0.00 | 100 | |
| 20260507094549 | 52 | 49 | 8.0 | 13.0 | 0.00 | 0.02 | 0.00 | 100 | |
| 20260507093049 | 52 | 74 | 5.0 | 13.0 | 0.00 | 0.02 | 0.00 | 100 | |
| 20260507091549 | 52 | 120 | 8.0 | 10.0 | 0.00 | 0.02 | 0.00 | 100 | |
| 20260507090049 | 52 | 94 | 7.0 | 12.0 | 0.00 | 0.02 | 0.00 | 100 | |
| 20260507084550 | 52 | 43 | 4.0 | 12.0 | 0.00 | 0.02 | 0.00 | 100 | |
| 20260507083050 | 52 | 67 | 6.0 | 13.0 | 0.00 | 0.02 | 0.00 | 100 | |
| 20260507081550 | 52 | 113 | 5.0 | 14.0 | 0.00 | 0.02 | 0.00 | 100 | |
| 20260507080050 | 52 | 78 | 2.0 | 11.0 | 0.00 | 0.02 | 0.00 | 100 | |
| 20260507074550 | 52 | 98 | 8.0 | 13.0 | 0.00 | 0.02 | 0.00 | 100 | |
| 20260507073050 | 52 | 54 | 6.0 | 12.0 | 0.00 | 0.02 | 0.00 | 100 | |
| 20260507071550 | 51 | 102 | 4.0 | 13.0 | 0.00 | 0.02 | 0.00 | 100 | |
| 20260507070050 | 51 | 135 | 1.0 | 12.0 | 0.00 | 0.02 | 0.00 | 100 | |
| 20260507064550 | 50 | 61 | 8.0 | 11.0 | 0.00 | 0.02 | 0.00 | 100 | |
| 20260507063050 | 50 | 56 | 4.0 | 9.0 | 0.00 | 0.02 | 0.00 | 100 | |
| 20260507061550 | 49 | 104 | 4.0 | 10.0 | 0.00 | 0.02 | 0.00 | 100 | |
| 20260507060050 | 49 | 63 | 5.0 | 10.0 | 0.00 | 0.02 | 0.00 | 100 | |
| 20260507054550 | 48 | 81 | 8.0 | 13.0 | 0.00 | 0.02 | 0.00 | 100 | |
| 20260507053050 | 48 | 104 | 4.0 | 11.0 | 0.00 | 0.02 | 0.00 | 100 | |
| 20260507051550 | 47 | 74 | 6.0 | 11.0 | 0.00 | 0.02 | 0.00 | 100 | |
| 20260507050050 | 47 | 82 | 2.0 | 12.0 | 0.00 | 0.02 | 0.00 | 100 | |
| 20260507044550 | 48 | 33 | 4.0 | 13.0 | 0.00 | 0.02 | 0.00 | 100 | |
| 20260507043050 | 47 | 56 | 4.0 | 13.0 | 0.00 | 0.02 | 0.00 | 100 | |
| 20260507041550 | 45 | 53 | 7.0 | 9.0 | 0.00 | 0.02 | 0.00 | 100 | |
| 20260507040050 | 45 | 26 | 2.0 | 9.0 | 0.00 | 0.02 | 0.00 | 100 | |
| 20260507034551 | 45 | 54 | 0.0 | 7.0 | 0.00 | 0.02 | 0.00 | 100 | |
| 20260507033051 | 45 | 15 | 6.0 | 10.0 | 0.00 | 0.02 | 0.00 | 100 | |
| 20260507031551 | 45 | 112 | 4.0 | 8.0 | 0.00 | 0.02 | 0.00 | 100 | |
| 20260507030051 | 45 | 157 | 6.0 | 9.0 | 0.00 | 0.02 | 0.00 | 100 | |
| 20260507024551 | 45 | 97 | 4.0 | 9.0 | 0.00 | 0.02 | 0.00 | 100 | |
| 20260507023051 | 45 | 63 | 1.0 | 10.0 | 0.00 | 0.02 | 0.00 | 100 | |
| 20260507021551 | 45 | 94 | 10.0 | 12.0 | 0.00 | 0.02 | 0.00 | 100 | |
| 20260507020051 | 45 | 130 | 2.0 | 9.0 | 0.00 | 0.02 | 0.00 | 100 | |
| 20260507014551 | 45 | 142 | 3.0 | 9.0 | 0.00 | 0.02 | 0.00 | 100 | |
| 20260507013051 | 45 | 130 | 3.0 | 12.0 | 0.00 | 0.02 | 0.00 | 100 | |
| 20260507011551 | 46 | 71 | 5.0 | 8.0 | 0.00 | 0.02 | 0.00 | 100 | |
| 20260507010051 | 45 | 112 | 5.0 | 10.0 | 0.00 | 0.02 | 0.00 | 100 | |
| 20260507004551 | 45 | 113 | 6.0 | 10.0 | 0.00 | 0.02 | 0.00 | 100 | |
| 20260507003051 | 45 | 106 | 3.0 | 9.0 | 0.00 | 0.02 | 0.00 | 100 | |
| 20260507001551 | 46 | 92 | 2.0 | 8.0 | 0.00 | 0.02 | 0.00 | 100 | |
| 20260507000051 | 45 | 140 | 3.0 | 11.0 | 0.00 | 0.02 | 0.00 | 100 | |
| 20260506234551 | 45 | 52 | 6.0 | 7.0 | 0.00 | 0.02 | 0.00 | 100 | |
| 20260506233051 | 45 | 136 | 3.0 | 11.0 | 0.00 | 0.02 | 0.00 | 100 | |
| 20260506231551 | 45 | 22 | 2.0 | 10.0 | 0.00 | 0.02 | 0.00 | 100 | |
| 20260506230052 | 45 | 90 | 4.0 | 11.0 | 0.00 | 0.02 | 0.00 | 100 | |
| 20260506224552 | 45 | 39 | 6.0 | 12.0 | 0.00 | 0.02 | 0.00 | 100 | |
| 20260506223052 | 46 | 165 | 5.0 | 9.0 | 0.00 | 0.02 | 0.00 | 100 | |
| 20260506221552 | 45 | 73 | 5.0 | 17.0 | 0.00 | 0.02 | 0.00 | 100 | |
| 20260506220052 | 46 | 80 | 7.0 | 13.0 | 0.00 | 0.02 | 0.00 | 100 | |
| 20260506214552 | 46 | 87 | 3.0 | 11.0 | 0.00 | 0.02 | 0.00 | 100 | |
| 20260506213052 | 46 | 81 | 6.0 | 11.0 | 0.00 | 0.02 | 0.00 | 100 | |
| 20260506211552 | 46 | 111 | 4.0 | 9.0 | 0.00 | 0.02 | 0.00 | 100 | |
| 20260506210052 | 45 | 98 | 6.0 | 11.0 | 0.00 | 0.02 | 0.00 | 100 | |
| 20260506204552 | 46 | 91 | 6.0 | 10.0 | 0.00 | 0.02 | 0.00 | 100 | |
| 20260506203052 | 46 | 113 | 4.0 | 10.0 | 0.00 | 0.02 | 0.00 | 100 | |
| 20260506201552 | 46 | 77 | 3.0 | 11.0 | 0.00 | 0.02 | 0.00 | 100 | |
| 20260506200052 | 46 | 154 | 4.0 | 11.0 | 0.00 | 0.02 | 0.02 | 100 | |
| 20260506194552 | 46 | 118 | 6.0 | 9.0 | 0.00 | 0.02 | 0.02 | 100 | |
| 20260506193052 | 46 | 127 | 1.0 | 9.0 | 0.00 | 0.02 | 0.02 | 100 | |
| 20260506191552 | 46 | 102 | 2.0 | 15.0 | 0.00 | 0.02 | 0.02 | 100 | |
| 20260506190052 | 46 | 123 | 5.0 | 8.0 | 0.00 | 0.02 | 0.02 | 100 | |
| 20260506184553 | 46 | 80 | 5.0 | 11.0 | 0.00 | 0.02 | 0.02 | 100 | |
| 20260506183052 | 46 | 53 | 9.0 | 11.0 | 0.00 | 0.02 | 0.02 | 100 | |
| 20260506181553 | 46 | 71 | 7.0 | 12.0 | 0.00 | 0.02 | 0.02 | 100 | |
| 20260506180053 | 47 | 112 | 5.0 | 12.0 | 0.00 | 0.02 | 0.02 | 100 | |
| 20260506174553 | 47 | 80 | 4.0 | 14.0 | 0.00 | 0.02 | 0.02 | 100 | |
| 20260506173053 | 47 | 116 | 4.0 | 12.0 | 0.00 | 0.02 | 0.02 | 100 | |
| 20260506171553 | 47 | 120 | 3.0 | 13.0 | 0.00 | 0.02 | 0.02 | 100 | |
| 20260506170053 | 48 | 95 | 3.0 | 13.0 | 0.00 | 0.02 | 0.02 | 100 | |
| 20260506164553 | 48 | 85 | 5.0 | 14.0 | 0.01 | 0.02 | 0.02 | 100 | |
| 20260506163053 | 48 | 132 | 4.0 | 10.0 | 0.01 | 0.02 | 0.02 | 100 |